User: anonymous   Login
Location: Pella
(41.4080°N, 92.9160°W)
Time: 01:46:16
(UTC-05:00)
Language:

ASTRO E2 - Orbit

View from above orbital plane
View from above orbital plane
View from above satellite
View from above satellite

Ground track
Ground track

The orbit data is extracted from the following two-line orbital elements,

1 28773U 05025A   17293.16549843 +.00001474 +00000-0 +70198-4 0  9996
2 28773 031.3821 205.8104 0004627 165.0001 195.0784 15.16120619676352
Epoch (UTC): 20 October 2017 03:58:19
Eccentricity: 0.0004627
inclination: 31.3821°
perigee height: 514 km
apogee height: 521 km
right ascension of ascending node: 205.8104°
argument of perigee: 165.0001°
revolutions per day: 15.16120619
mean anomaly at epoch: 195.0784°
orbit number at epoch: 67635

The dashed part of the orbit path shows where the satellite is in the earth's shadow,  

DLR